ZK-2 R/B, 68413

Orbit data source: Space-Track

ZK-2 R/B, 68413 is space debris in LEO originally from a launch on Mon, 30 Mar 2026 UTC launched from the Jiuquan Satellite Launch Center, China (JSC). Debris objects in space refer to the collection of defunct objects orbiting the Earth. Examples of debris include non-operational satellites, rocket bodies, and fragments generated from explosions, collisions, or faulty payload assembly.

Not visible in the next 10 days
Identifier
68413, 2026-066B
Orbit
LEO
Country
Flag of CNCN / PRC
Related business
Flag of CNBeijing Zhongke Tansuo Jishu YG (CN)
Manufacturer
Zhongke TJ YG
Mission
Decayed spacecraft
Bus & Motor
LK-2 S1, Unknown motor
Mass
17,000 kg wet, 17,000 kg dry
Launch date (UTC)
2026-03-30 (2 weeks ago)
Launch vehicle
Unknown
Launch site
Jiuquan Satellite Launch Center, China (JSC)
Object type
Payload
Rocket body
Debris
Shape & HBR
Unknown
Radar Cross Section
RCS unknown

Expand to show TLE details & history
Last TLE update: 2 hours ago

TLE from 2 hours ago
0 ZK-2 R/B
1 68413U 26066B   26102.48615720  .13087951 -27292-5  26118-3 0  9999
2 68413  84.6517 268.3926 0148682 163.4945 257.4755 16.20502707  2010
Epoch: 2026-04-12T11:40Z
TLE epoch observation values (Epoch: 2026-04-12T11:40:03.982Z)
Latitude
59.00019°
Longitude
-98.40221°
Altitude
250.958 km
Speed
7.749 km/s
True Right ascension
18h 29m 13s
True Declination
58° 50' 11"
Sunlit
Object was in daylight at epoch
Visualization orbit readout
Latitude
Unknown
Longitude
Unknown
Altitude
Unknown
Speed
Unknown
Apparent Right ascension
Unknown
Apparent Declination
Unknown
Sunlit
N/A
Visualization observer readout
Local Sidereal Time
20:07:39
Azimuth
Unknown
Elevation
Unknown
Doppler factor
Unknown
Orbital elements
Apogee altitude
312.967 km
Perigee altitude
116.913 km
Semi-major axis
6,593.077 km
Eccentricity
0.01487
Inclination
84.6517°
RAAN
268.3926°
Arg. of periapsis
163.4945°
True anomaly
255.81918°
Mean anomaly
257.4755°
Eccentric anomaly
256.64665°
Mean motion
4.05425 °/min
Orbital period
88.8 mins
BSTAR
0.00026118
Loading maneuver chart data...
Computing Atmospheric mass density...
Loading historical data...
Loading historical data...
Loading historical data...
Loading historical data...
Loading historical data...
Loading historical data...
Loading historical data...
Other satellites on launch #66 in the year 2026 (2026-03-30 UTC)

Documentation

Showing up to 5 results
|